カタログに戻る

ISS

NAUKA

運用中科学VLEO
NORAD 49044·PAYLOAD·🇷🇺 Russia

打ち上げ Jul 21, 2021 から Baikonur Cosmodrome

Loading…

次のパス (今後24時間)

TLE

最新Source: Space-Track

元期: Sep 14, 2026, 08:04 UTC

1 49044U 21066A   26257.33674862  .00004921  00000-0  97059-4 0  9997
2 49044  51.6309 218.8707 0004933 140.1115 220.0237 15.49109585586509

AllMySatでISSをリアルタイム追跡

Download on the App Store